Weather History for Crestview, FL

Change the Weather History Date:

Monday, December 24, 2012

  Actual Average Record
Temperature  
Mean Temperature 58 °F -  
Max Temperature 68 °F - - ()
Min Temperature 48 °F - - ()
Degree Days  
Heating Degree Days 7    
Growing Degree Days 8 (Base 50)    
Moisture  
Dew Point 61 °F    
Average Humidity 95    
Maximum Humidity 100    
Minimum Humidity 83    
Precipitation  
Precipitation 0.22 in - - ()
Sea Level Pressure  
Sea Level Pressure 29.94 in    
Wind  
Wind Speed 8 mph (SSW)    
Max Wind Speed 21 mph    
Max Gust Speed 30 mph    
Visibility 5 miles    
Events Fog , Rain    
T = Trace of Precipitation, MM = Missing Value Source: NWS Daily Summary

Daily Weather History Graph

Daily Weather History Graph

Search for Another Location

Airport:

Trip Planner

Search our weather history database for the weather conditions in past years. The results will help you decide how hot, cold, wet, or windy it might be!

Date:

Astronomy

Dec. 24, 2012 Rise Set
Actual Time 6:40 AM CST 4:51 PM CST
Civil Twilight 6:14 AM CST 5:17 PM CST
Nautical Twilight 5:44 AM CST 5:47 PM CST
Astronomical Twilight 5:14 AM CST 6:17 PM CST
Moon 2:13 PM CST (12/24) 3:24 AM CST (12/24)
Length of Visible Light 11h 03m
Length of Day
10h 10m
Waxing Gibbous, 88% of the Moon is Illuminated
Dec 24
Waxing Gibbous
Dec 28
Full
Jan 4
Last Quarter
Jan 11
New
Jan 18
First Quarter

Hourly Weather History & Observations

Time (CST) Temp. Dew Point Humidity Pressure Visibility Wind Dir Wind Speed Gust Speed Precip Events Conditions
12:55 AM 48.2 °F 44.1 °F 86% 30.05 in 10.0 mi Calm Calm - N/A   Mostly Cloudy
1:55 AM 52.0 °F 47.3 °F 84% 30.04 in 10.0 mi South 3.5 mph - N/A   Scattered Clouds
2:55 AM 52.2 °F 48.0 °F 86% 30.01 in 10.0 mi SSE 5.8 mph - N/A   Mostly Cloudy
3:55 AM 54.7 °F 50.5 °F 86% 29.98 in 10.0 mi SSE 6.9 mph - N/A   Mostly Cloudy
4:55 AM 54.9 °F 51.6 °F 89% 29.98 in 10.0 mi WSW 3.5 mph - N/A   Mostly Cloudy
5:55 AM 57.9 °F 54.7 °F 89% 29.96 in 10.0 mi South 5.8 mph - N/A   Scattered Clouds
6:20 AM 57.2 °F 55.4 °F 94% 29.97 in 10.0 mi SSW 6.9 mph - N/A   Light Drizzle
6:23 AM 57.2 °F 55.4 °F 94% 29.97 in 7.0 mi SSW 5.8 mph - N/A Rain Rain
6:33 AM 59.0 °F 57.2 °F 94% 29.97 in 10.0 mi South 5.8 mph - N/A   Mostly Cloudy
6:36 AM 59.0 °F 57.2 °F 94% 29.97 in 10.0 mi South 5.8 mph - N/A   Scattered Clouds
6:44 AM 59.0 °F 57.2 °F 94% 29.97 in 10.0 mi South 5.8 mph - N/A   Mostly Cloudy
6:47 AM 59.0 °F 57.2 °F 94% 29.97 in 10.0 mi South 6.9 mph - N/A   Scattered Clouds
6:55 AM 57.6 °F 56.1 °F 95% 29.97 in 10.0 mi South 6.9 mph - 0.01 in   Scattered Clouds
7:06 AM 59.0 °F 59.0 °F 100% 29.96 in 10.0 mi South 8.1 mph - N/A   Mostly Cloudy
7:14 AM 60.8 °F 59.0 °F 94% 29.97 in 10.0 mi SSW 6.9 mph - N/A   Mostly Cloudy
7:20 AM 60.8 °F 59.0 °F 94% 29.97 in 10.0 mi SSW 6.9 mph - N/A   Mostly Cloudy
7:46 AM 62.6 °F 60.8 °F 94% 29.97 in 10.0 mi South 8.1 mph - N/A   Mostly Cloudy
7:55 AM 62.2 °F 61.3 °F 97% 29.97 in 10.0 mi South 8.1 mph - N/A   Mostly Cloudy
8:01 AM 62.6 °F 60.8 °F 94% 29.97 in 10.0 mi South 9.2 mph - N/A   Light Drizzle
8:24 AM 62.6 °F 60.8 °F 94% 29.98 in 2.5 mi SSW 15.0 mph - N/A Rain Rain
8:26 AM 62.6 °F 60.8 °F 94% 29.98 in 3.0 mi SSW 15.0 mph - N/A Rain Light Rain
8:34 AM 62.6 °F 60.8 °F 94% 29.98 in 5.0 mi SSW 13.8 mph - N/A Rain Light Rain
8:51 AM 62.6 °F 62.6 °F 100% 29.98 in 4.0 mi South 11.5 mph - N/A Rain Rain
8:55 AM 63.1 °F 61.9 °F 96% 29.98 in 4.0 mi SSW 11.5 mph - 0.09 in Rain Rain
8:56 AM 62.6 °F 62.6 °F 100% 29.98 in 4.0 mi SSW 11.5 mph - N/A Rain Light Rain
9:01 AM 62.6 °F 62.6 °F 100% 29.98 in 8.0 mi SSW 13.8 mph - N/A   Overcast
9:45 AM 66.2 °F 62.6 °F 88% 29.98 in 10.0 mi SSW 11.5 mph - N/A   Mostly Cloudy
9:52 AM 66.2 °F 62.6 °F 88% 29.98 in 10.0 mi South 11.5 mph - N/A   Mostly Cloudy
9:55 AM 65.5 °F 63.3 °F 93% 29.98 in 10.0 mi South 11.5 mph - 0.00 in   Mostly Cloudy
10:10 AM 66.2 °F 64.4 °F 94% 29.96 in 10.0 mi South 15.0 mph - N/A   Mostly Cloudy
10:15 AM 66.2 °F 64.4 °F 94% 29.96 in 10.0 mi South 15.0 mph - N/A   Light Drizzle
10:25 AM 66.2 °F 62.6 °F 88% 29.95 in 10.0 mi SSW 17.3 mph - N/A   Overcast
10:52 AM 66.2 °F 62.6 °F 88% 29.94 in 10.0 mi South 20.7 mph 29.9 mph N/A   Light Drizzle
10:55 AM 66.7 °F 63.0 °F 88% 29.94 in 10.0 mi South 20.7 mph 29.9 mph 0.00 in   Light Drizzle
11:18 AM 66.2 °F 62.6 °F 88% 29.94 in 2.5 mi SW 13.8 mph - N/A Rain Light Rain
11:20 AM 66.2 °F 62.6 °F 88% 29.94 in 3.0 mi SW 13.8 mph - N/A Rain Light Rain
11:42 AM 66.2 °F 62.6 °F 88% 29.92 in 8.0 mi SSW 17.3 mph 24.2 mph N/A   Light Drizzle
11:45 AM 66.2 °F 62.6 °F 88% 29.92 in 5.0 mi SSW 20.7 mph 28.8 mph N/A Rain Light Rain
11:55 AM 65.7 °F 63.3 °F 92% 29.92 in 6.0 mi SSW 15.0 mph 28.8 mph 0.07 in Rain Light Rain
12:05 PM 66.2 °F 62.6 °F 88% 29.91 in 8.0 mi SSW 15.0 mph 21.9 mph N/A Rain Light Rain
12:06 PM 66.2 °F 62.6 °F 88% 29.91 in 8.0 mi SW 13.8 mph 21.9 mph N/A Rain Light Rain
12:15 PM 66.2 °F 62.6 °F 88% 29.91 in 10.0 mi SSW 19.6 mph 24.2 mph N/A   Light Drizzle
12:17 PM 66.2 °F 62.6 °F 88% 29.91 in 10.0 mi SSW 18.4 mph - N/A   Scattered Clouds
12:21 PM 66.2 °F 62.6 °F 88% 29.91 in 7.0 mi SW 16.1 mph - N/A   Scattered Clouds
12:22 PM 66.2 °F 62.6 °F 88% 29.91 in 6.0 mi SW 16.1 mph 23.0 mph N/A Rain Heavy Rain
12:43 PM 64.4 °F 62.6 °F 94% 29.92 in 3.0 mi WSW 10.4 mph - N/A Rain Light Rain
12:55 PM 64.9 °F 63.1 °F 94% 29.91 in 9.0 mi SW 8.1 mph - 0.05 in Rain Light Rain
12:58 PM 66.2 °F 64.4 °F 94% 29.91 in 10.0 mi WSW 8.1 mph - N/A   Mostly Cloudy
1:07 PM 66.2 °F 64.4 °F 94% 29.91 in 10.0 mi SW 11.5 mph - N/A   Scattered Clouds
1:55 PM 68.0 °F 63.3 °F 85% 29.90 in 10.0 mi WSW 9.2 mph - 0.00 in   Scattered Clouds
2:02 PM 68.0 °F 62.6 °F 83% 29.90 in 10.0 mi SW 13.8 mph - N/A   Scattered Clouds
2:55 PM 68.7 °F 63.5 °F 83% 29.89 in 10.0 mi SSW 10.4 mph - N/A   Scattered Clouds
3:17 PM 68.0 °F 62.6 °F 83% 29.89 in 10.0 mi SSW 10.4 mph - N/A   Mostly Cloudy
3:22 PM 68.0 °F 62.6 °F 83% 29.90 in 10.0 mi SSW 8.1 mph - N/A   Scattered Clouds
3:23 PM 68.0 °F 64.4 °F 88% 29.90 in 10.0 mi SSW 9.2 mph - N/A   Mostly Cloudy
3:41 PM 68.0 °F 62.6 °F 83% 29.90 in 10.0 mi SSW 10.4 mph - N/A   Scattered Clouds
3:55 PM 67.6 °F 63.3 °F 86% 29.90 in 10.0 mi SSW 10.4 mph - N/A   Scattered Clouds
4:55 PM 65.7 °F 62.8 °F 90% 29.90 in 10.0 mi SSW 5.8 mph - N/A   Partly Cloudy
5:55 PM 61.9 °F 61.5 °F 99% 29.90 in 10.0 mi South 3.5 mph - N/A   Clear
6:08 PM 62.6 °F 62.6 °F 100% 29.91 in 2.5 mi SSE 3.5 mph - N/A   Clear
6:09 PM 62.6 °F 62.6 °F 100% 29.91 in 2.0 mi South 3.5 mph - N/A   Partly Cloudy
6:10 PM 62.6 °F 62.6 °F 100% 29.91 in 1.8 mi South 3.5 mph - N/A   Partly Cloudy
6:11 PM 62.6 °F 60.8 °F 94% 29.91 in 1.2 mi South 3.5 mph - N/A   Partly Cloudy
6:13 PM 62.6 °F 60.8 °F 94% 29.91 in 1.0 mi South 4.6 mph - N/A   Mist
6:15 PM 60.8 °F 60.8 °F 100% 29.91 in 0.8 mi South 4.6 mph - N/A   Mist
6:19 PM 60.8 °F 60.8 °F 100% 29.91 in 0.8 mi South 4.6 mph - N/A   Mist
6:28 PM 60.8 °F 60.8 °F 100% 29.91 in 0.8 mi SSW 3.5 mph - N/A   Mist
6:33 PM 60.8 °F 59.0 °F 94% 29.91 in 0.5 mi South 3.5 mph - N/A Fog Fog
6:46 PM 60.8 °F 60.8 °F 100% 29.92 in 0.8 mi SSW 4.6 mph - N/A   Mist
6:49 PM 60.8 °F 60.8 °F 100% 29.92 in 1.0 mi SSW 4.6 mph - N/A   Mist
6:50 PM 60.8 °F 60.8 °F 100% 29.92 in 1.2 mi SSW 4.6 mph - N/A   Mostly Cloudy
6:51 PM 60.8 °F 60.8 °F 100% 29.92 in 1.5 mi SSW 4.6 mph - N/A   Overcast
6:52 PM 60.8 °F 60.8 °F 100% 29.92 in 2.0 mi SSW 4.6 mph - N/A   Overcast
6:54 PM 62.6 °F 60.8 °F 94% 29.92 in 3.0 mi SSW 4.6 mph - N/A   Overcast
6:55 PM 61.7 °F 61.5 °F 99% 29.92 in 2.5 mi SSW 4.6 mph - N/A   Overcast
7:01 PM 62.6 °F 60.8 °F 94% 29.92 in 2.5 mi South 4.6 mph - N/A   Overcast
7:04 PM 62.6 °F 62.6 °F 100% 29.92 in 2.0 mi SSW 5.8 mph - N/A   Overcast
7:15 PM 62.6 °F 62.6 °F 100% 29.92 in 1.8 mi SSW 6.9 mph - N/A   Overcast
7:23 PM 62.6 °F 62.6 °F 100% 29.92 in 1.2 mi SSW 4.6 mph - N/A   Overcast
7:26 PM 62.6 °F 62.6 °F 100% 29.92 in 1.0 mi SSW 4.6 mph - N/A   Mist
7:27 PM 62.6 °F 62.6 °F 100% 29.92 in 1.0 mi SSW 3.5 mph - N/A   Mist
7:28 PM 62.6 °F 62.6 °F 100% 29.92 in 0.8 mi SSW 4.6 mph - N/A   Mist
7:34 PM 62.6 °F 62.6 °F 100% 29.93 in 0.5 mi SSW 4.6 mph - N/A Fog Fog
7:47 PM 62.6 °F 62.6 °F 100% 29.93 in 0.5 mi SSW 4.6 mph - N/A Fog Fog
7:49 PM 62.6 °F 62.6 °F 100% 29.93 in 0.2 mi SSW 4.6 mph - N/A Fog Fog
7:55 PM 62.8 °F 62.4 °F 99% 29.93 in 0.2 mi SSW 5.8 mph - N/A Fog Fog
8:18 PM 62.6 °F 62.6 °F 100% 29.93 in 0.5 mi SSW 5.8 mph - N/A Fog Fog
8:40 PM 62.6 °F 62.6 °F 100% 29.93 in 0.5 mi SSW 4.6 mph - N/A Fog Fog
8:41 PM 62.6 °F 62.6 °F 100% 29.93 in 0.5 mi SSW 4.6 mph - N/A Fog Fog
8:47 PM 62.6 °F 62.6 °F 100% 29.93 in 0.5 mi SSW 5.8 mph - N/A Fog Fog
8:55 PM 63.0 °F 62.6 °F 99% 29.94 in 0.5 mi SSW 4.6 mph - N/A Fog Fog
9:02 PM 62.6 °F 62.6 °F 100% 29.94 in 0.5 mi SSW 3.5 mph - N/A Fog Fog
9:11 PM 62.6 °F 62.6 °F 100% 29.94 in 0.2 mi South 4.6 mph - N/A Fog Fog
9:16 PM 62.6 °F 62.6 °F 100% 29.94 in 0.5 mi South 5.8 mph - N/A Fog Fog
9:50 PM 62.6 °F 62.6 °F 100% 29.94 in 0.5 mi SSW 5.8 mph - N/A Fog Fog
9:55 PM 62.8 °F 62.4 °F 99% 29.94 in 0.5 mi SSW 5.8 mph - N/A Fog Fog
9:57 PM 62.6 °F 62.6 °F 100% 29.94 in 0.8 mi SSW 5.8 mph - N/A   Mist
10:33 PM 62.6 °F 62.6 °F 100% 29.94 in 1.0 mi SSW 5.8 mph - N/A   Mist
10:37 PM 62.6 °F 62.6 °F 100% 29.94 in 1.2 mi SW 5.8 mph - N/A   Overcast
10:47 PM 62.6 °F 62.6 °F 100% 29.94 in 1.5 mi SW 6.9 mph - N/A   Overcast
10:54 PM 64.4 °F 64.4 °F 100% 29.93 in 1.8 mi Variable 5.8 mph - N/A   Overcast
10:55 PM 63.5 °F 63.5 °F 100% 29.93 in 1.8 mi SW 6.9 mph - N/A   Overcast
10:59 PM 64.4 °F 64.4 °F 100% 29.93 in 2.5 mi Calm Calm - N/A   Overcast
11:04 PM 64.4 °F 64.4 °F 100% 29.93 in 3.0 mi SW 4.6 mph - N/A   Overcast
11:15 PM 64.4 °F 64.4 °F 100% 29.93 in 9.0 mi SW 6.9 mph - N/A   Overcast
11:27 PM 64.4 °F 64.4 °F 100% 29.93 in 10.0 mi SW 5.8 mph - N/A   Overcast
11:45 PM 64.4 °F 64.4 °F 100% 29.93 in 5.0 mi WSW 3.5 mph - N/A   Overcast
11:55 PM 63.7 °F 63.7 °F 100% 29.92 in 5.0 mi SSW 3.5 mph - N/A   Overcast